Temp
13 15 15 16 14 15 14 15 13 15 15 16 16 16 15 15 14 13 12 11 9 6 2 0 -1 -0 -1 -2 -3 -3 -3 -4 -4 -5 -5 -5 -5 -6 -6 -6 -6 -6 -7 -8
6 10 11 12 14 15 15 15 15 14 13 16 17 17 17 15 14 14 12 10 8 6 3 2 1 0 -1 -2 -3 -3 -4 -4 -5 -5 -5 -5 -6 -6 -6 -6 -6 -6 -6 -8
7 10 11 8 9 12 13 14 14 14 15 16 16 17 16 14 14 13 12 10 7 6 4 2 1 -0 -1 -3 -4 -4 -4 -5 -5 -5 -6 -6 -6 -6 -6 -6 -6 -6 -6 -8
7 9 7 12 15 15 14 14 14 15 15 16 16 16 15 13 13 12 11 8 6 5 3 1 -1 -2 -3 -3 -4 -5 -5 -5 -5 -6 -6 -6 -6 -6 -6 -7 -6 -6 -7 -8
7 7 10 11 13 14 13 13 15 14 15 16 14 9 9 11 12 10 9 7 5 3 1 -1 -2 -3 -3 -4 -4 -5 -6 -6 -6 -7 -7 -7 -7 -7 -7 -7 -7 -7 -7 -8
8 7 7 12 15 14 13 11 15 15 15 15 11 10 12 8 9 8 6 5 2 1 -1 -2 -3 -3 -4 -4 -5 -6 -7 -7 -7 -7 -7 -7 -7 -7 -7 -7 -7 -8 -8 -9
7 7 10 13 14 13 10 12 14 15 14 14 10 10 8 7 7 5 4 2 0 -1 -2 -3 -4 -4 -4 -5 -6 -7 -8 -8 -8 -8 -8 -8 -8 -8 -8 -8 -8 -9 -9 -9
7 6 7 13 14 11 12 12 11 12 13 10 7 6 6 5 4 2 1 -0 -1 -2 -3 -4 -4 -4 -5 -6 -8 -8 -8 -8 -8 -9 -9 -9 -9 -9 -9 -9 -9 -10 -10 -11
9 10 12 12 13 12 9 10 9 10 9 6 5 4 4 2 1 1 -1 -1 -2 -3 -4 -5 -5 -5 -6 -8 -8 -9 -9 -9 -10 -10 -10 -10 -10 -10 -11 -11 -11 -11 -12 -12
8 10 12 12 10 8 8 9 8 8 6 5 4 3 2 1 0 -0 -1 -2 -2 -4 -5 -6 -7 -7 -7 -8 -9 -9 -7 -7 -9 -11 -11 -12 -11 -11 -12 -12 -13 -13 -14 -14
8 10 10 10 9 9 6 6 6 6 5 5 3 2 2 1 0 -1 -2 -3 -3 -4 -5 -6 -7 -8 -9 -9 -9 -10 -8 -9 -11 -12 -12 -12 -12 -12 -12 -13 -14 -15 -15 -15
8 9 8 9 7 6 4 4 4 4 4 3 3 2 1 0 -1 -2 -3 -3 -4 -5 -6 -7 -8 -9 -9 -10 -8 -9 -11 -11 -12 -12 -12 -12 -12 -12 -12 -13 -14 -14 -15 -16
10 7 5 4 4 4 3 4 4 4 3 3 2 1 0 -1 -2 -3 -4 -4 -5 -6 -7 -8 -9 -10 -10 -9 -9 -9 -9 -10 -12 -12 -12 -13 -13 -13 -13 -13 -14 -14 -15 -15
6 3 3 2 3 4 4 4 3 3 3 2 1 -0 -1 -3 -4 -5 -6 -6 -6 -7 -7 -7 -8 -8 -8 -9 -9 -10 -10 -10 -13 -13 -13 -13 -14 -14 -14 -14 -14 -14 -14 -15
4 4 2 1 1 2 3 3 2 2 1 0 -0 -2 -4 -5 -4 -4 -4 -5 -5 -6 -7 -7 -8 -9 -9 -9 -10 -10 -11 -13 -13 -14 -14 -14 -14 -14 -14 -14 -14 -14 -15 -15
4 3 2 2 2 3 3 2 2 1 0 -1 -2 -4 -5 -3 -3 -4 -5 -5 -6 -7 -8 -8 -9 -9 -10 -10 -10 -12 -12 -11 -12 -13 -13 -14 -14 -14 -14 -14 -15 -15 -15 -16
3 3 3 3 3 3 3 3 1 0 -1 -2 -3 -5 -4 -4 -4 -5 -6 -7 -8 -8 -9 -9 -9 -10 -10 -10 -11 -13 -13 -13 -13 -13 -13 -14 -14 -14 -15 -15 -15 -15 -15 -16
4 4 4 3 3 3 3 2 0 -1 -2 -3 -5 -4 -4 -4 -4 -5 -6 -8 -8 -9 -10 -10 -10 -10 -11 -11 -11 -13 -14 -14 -14 -14 -14 -14 -15 -15 -15 -15 -15 -16 -16 -16
4 5 5 3 3 3 1 -0 -1 -2 -3 -3 -2 -3 -4 -5 -5 -6 -7 -8 -9 -10 -10 -10 -10 -11 -12 -11 -12 -14 -14 -14 -14 -14 -15 -15 -15 -15 -15 -16 -16 -16 -16 -17
4 4 3 2 2 0 -1 -1 -3 -2 -2 -2 -3 -4 -5 -5 -6 -6 -7 -8 -10 -11 -11 -11 -11 -12 -14 -13 -12 -14 -15 -15 -15 -15 -15 -16 -15 -16 -16 -16 -16 -17 -17 -17
2 1 1 -0 -1 -1 -2 -1 -0 -1 -2 -2 -3 -4 -5 -5 -6 -7 -8 -11 -12 -11 -12 -11 -12 -14 -14 -14 -13 -15 -15 -15 -15 -15 -15 -15 -16 -16 -16 -16 -17 -17 -17 -18
0 -1 -1 -1 -1 -1 -2 -1 -1 -2 -2 -3 -4 -5 -5 -6 -7 -8 -10 -10 -11 -11 -12 -12 -13 -14 -14 -13 -15 -15 -15 -15 -15 -15 -16 -16 -16 -16 -16 -17 -17 -17 -18 -18
1 0 -1 -1 -1 -1 -1 -2 -2 -3 -3 -4 -4 -5 -6 -7 -8 -10 -11 -11 -12 -11 -13 -13 -14 -14 -14 -14 -15 -15 -15 -16 -16 -16 -16 -16 -16 -17 -17 -17 -18 -18 -19 -19
0 -0 -1 -1 -1 -1 -1 -2 -3 -3 -4 -5 -5 -6 -7 -9 -11 -11 -10 -11 -12 -13 -13 -13 -14 -14 -14 -15 -16 -16 -16 -16 -16 -16 -16 -17 -17 -17 -17 -18 -18 -19 -19 -20
0 0 -0 -1 -2 -2 -2 -3 -3 -4 -5 -6 -6 -7 -8 -10 -10 -11 -12 -13 -13 -13 -14 -14 -14 -14 -14 -16 -16 -16 -16 -16 -16 -17 -17 -18 -18 -18 -19 -19 -20 -20 -21 -22
-0 -1 -1 -2 -4 -3 -3 -3 -5 -5 -6 -7 -7 -8 -9 -11 -11 -12 -13 -13 -14 -13 -14 -14 -15 -15 -16 -16 -16 -16 -16 -16 -17 -17 -18 -19 -19 -20 -21 -21 -22 -22 -23 -24
-2 -2 -2 -4 -4 -4 -4 -5 -6 -6 -7 -9 -10 -11 -12 -12 -13 -12 -13 -14 -14 -15 -15 -15 -15 -15 -16 -16 -16 -16 -17 -17 -18 -18 -18 -19 -20 -21 -22 -22 -22 -22 -22 -23
Height
1443 1433 1430 1424 1431 1433 1434 1431 1438 1426 1431 1422 1430 1433 1439 1441 1442 1448 1452 1460 1468 1475 1480 1485 1489 1489 1492 1492 1492 1492 1491 1492 1492 1489 1487 1486 1485 1483 1482 1481 1478 1475 1471 1466
1459 1447 1439 1434 1428 1418 1423 1426 1423 1428 1431 1421 1423 1425 1424 1432 1438 1440 1447 1455 1463 1472 1477 1483 1486 1487 1488 1490 1490 1489 1491 1490 1488 1487 1484 1484 1483 1481 1481 1479 1476 1473 1469 1464
1449 1438 1435 1442 1434 1426 1419 1420 1419 1418 1409 1417 1419 1420 1424 1427 1430 1434 1441 1451 1461 1468 1474 1480 1483 1484 1485 1486 1486 1486 1489 1488 1486 1484 1483 1482 1480 1480 1478 1476 1473 1470 1467 1462
1442 1440 1438 1415 1406 1406 1408 1408 1409 1409 1407 1409 1410 1413 1418 1424 1427 1430 1438 1448 1458 1466 1473 1478 1479 1481 1481 1484 1484 1484 1486 1486 1483 1482 1480 1479 1478 1477 1476 1473 1471 1468 1465 1461
1441 1435 1423 1416 1404 1404 1406 1403 1397 1401 1401 1402 1411 1418 1423 1425 1426 1432 1439 1448 1457 1464 1470 1474 1476 1477 1480 1480 1483 1483 1482 1482 1481 1479 1477 1476 1476 1475 1473 1470 1468 1465 1462 1458
1430 1428 1425 1403 1396 1400 1405 1404 1391 1390 1392 1398 1411 1417 1415 1424 1426 1433 1441 1450 1456 1462 1467 1471 1471 1474 1477 1479 1481 1479 1479 1479 1478 1476 1475 1475 1474 1472 1470 1468 1466 1463 1459 1456
1423 1420 1411 1402 1398 1401 1409 1394 1386 1384 1388 1391 1403 1412 1418 1423 1429 1437 1444 1450 1455 1461 1464 1468 1469 1471 1474 1477 1477 1476 1476 1476 1476 1474 1473 1473 1472 1470 1467 1465 1462 1460 1457 1453
1422 1420 1414 1396 1393 1396 1395 1392 1391 1390 1391 1398 1406 1415 1420 1426 1433 1440 1447 1453 1456 1460 1463 1464 1467 1469 1472 1474 1473 1473 1474 1474 1473 1471 1471 1471 1469 1467 1464 1462 1460 1457 1454 1450
1402 1396 1393 1390 1386 1388 1394 1395 1397 1396 1397 1404 1409 1414 1421 1428 1436 1442 1448 1453 1457 1460 1461 1462 1465 1469 1470 1470 1470 1471 1471 1470 1470 1469 1468 1467 1466 1464 1461 1460 1458 1455 1451 1447
1398 1391 1388 1387 1392 1395 1396 1397 1400 1399 1400 1405 1411 1417 1421 1430 1437 1442 1448 1452 1457 1459 1459 1460 1463 1465 1467 1466 1468 1468 1467 1466 1466 1466 1464 1463 1463 1462 1460 1458 1455 1452 1449 1444
1386 1387 1388 1388 1390 1394 1398 1397 1398 1402 1405 1409 1414 1419 1424 1429 1436 1442 1447 1451 1454 1457 1458 1461 1462 1463 1462 1464 1465 1466 1464 1464 1464 1465 1463 1462 1461 1460 1458 1456 1453 1450 1446 1442
1382 1384 1387 1386 1391 1395 1395 1394 1400 1404 1408 1414 1415 1420 1426 1430 1436 1441 1445 1448 1451 1455 1457 1459 1460 1460 1461 1462 1462 1463 1463 1464 1463 1462 1461 1460 1460 1459 1456 1453 1450 1447 1444 1440
1375 1380 1385 1387 1387 1388 1390 1394 1400 1405 1409 1411 1417 1422 1427 1430 1436 1440 1443 1447 1449 1453 1455 1456 1457 1458 1458 1459 1460 1460 1461 1461 1462 1460 1460 1459 1458 1456 1455 1452 1450 1447 1442 1438
1375 1379 1384 1386 1387 1389 1392 1395 1401 1405 1409 1413 1417 1423 1426 1429 1433 1437 1440 1442 1445 1448 1450 1452 1453 1454 1455 1457 1458 1459 1459 1459 1458 1459 1458 1456 1455 1454 1452 1450 1447 1444 1441 1435
1372 1376 1381 1387 1389 1391 1395 1398 1402 1406 1410 1414 1420 1422 1424 1426 1430 1433 1437 1440 1443 1446 1448 1450 1451 1453 1454 1455 1456 1457 1457 1457 1457 1458 1457 1454 1454 1452 1451 1448 1445 1441 1437 1433
1372 1375 1380 1384 1387 1391 1394 1399 1402 1405 1410 1415 1418 1422 1423 1425 1429 1433 1436 1439 1442 1444 1446 1448 1450 1452 1453 1454 1454 1455 1456 1455 1455 1457 1456 1454 1453 1451 1449 1446 1443 1439 1435 1431
1371 1373 1378 1381 1385 1390 1393 1398 1402 1405 1409 1412 1416 1419 1421 1425 1429 1432 1435 1438 1441 1443 1445 1447 1449 1450 1451 1452 1453 1456 1456 1456 1453 1454 1454 1453 1451 1449 1446 1443 1440 1437 1433 1429
1367 1370 1375 1380 1384 1388 1393 1397 1401 1404 1408 1412 1415 1418 1422 1425 1427 1431 1434 1437 1440 1442 1444 1446 1447 1448 1449 1450 1451 1454 1454 1454 1453 1452 1451 1450 1448 1446 1444 1441 1438 1434 1431 1427
1367 1370 1375 1380 1385 1390 1394 1397 1401 1406 1409 1411 1414 1419 1423 1425 1428 1431 1434 1436 1439 1441 1442 1444 1445 1446 1447 1448 1449 1451 1452 1451 1451 1451 1449 1447 1446 1444 1441 1438 1435 1432 1428 1424
1367 1371 1376 1381 1386 1390 1394 1399 1401 1404 1408 1412 1415 1419 1422 1424 1427 1429 1432 1435 1437 1440 1439 1441 1442 1444 1446 1446 1447 1449 1448 1448 1449 1448 1447 1444 1443 1440 1438 1435 1432 1428 1425 1421
1369 1373 1376 1381 1386 1390 1393 1396 1400 1404 1408 1412 1415 1418 1421 1423 1426 1428 1431 1434 1435 1435 1438 1438 1440 1443 1443 1444 1444 1446 1445 1446 1446 1446 1444 1442 1440 1437 1435 1432 1428 1425 1421 1418
1369 1372 1376 1380 1385 1389 1394 1398 1402 1406 1409 1412 1415 1418 1420 1422 1424 1427 1430 1434 1432 1433 1434 1436 1438 1439 1441 1440 1442 1442 1443 1443 1443 1442 1441 1439 1437 1434 1431 1428 1424 1421 1417 1414
1370 1374 1379 1383 1387 1391 1396 1400 1403 1406 1409 1412 1414 1416 1419 1420 1422 1425 1429 1430 1431 1431 1433 1436 1435 1435 1436 1437 1439 1440 1440 1440 1439 1439 1437 1435 1433 1430 1426 1423 1420 1416 1413 1409
1374 1378 1382 1386 1390 1393 1396 1400 1403 1406 1408 1411 1413 1415 1417 1418 1421 1424 1428 1427 1429 1428 1431 1433 1432 1432 1433 1434 1436 1437 1437 1436 1436 1434 1433 1430 1428 1425 1422 1418 1415 1412 1408 1404
1377 1380 1384 1387 1391 1393 1396 1399 1402 1404 1406 1408 1410 1413 1415 1418 1421 1422 1423 1424 1425 1426 1428 1428 1429 1429 1429 1431 1433 1433 1433 1433 1432 1430 1427 1425 1422 1419 1416 1412 1409 1405 1401 1398
1379 1382 1385 1389 1392 1394 1396 1399 1401 1403 1405 1406 1408 1410 1412 1415 1417 1419 1420 1421 1422 1423 1426 1426 1426 1426 1427 1429 1429 1430 1429 1428 1427 1425 1421 1419 1416 1412 1409 1405 1402 1398 1395 1391
1380 1383 1386 1389 1391 1393 1395 1398 1399 1401 1403 1405 1407 1408 1410 1412 1414 1416 1417 1419 1420 1421 1423 1425 1425 1424 1425 1426 1426 1426 1425 1423 1421 1417 1414 1411 1408 1405 1402 1398 1394 1390 1387 1383
Wind_Speed
26 30 29 27 18 16 21 23 21 23 22 25 20 14 18 20 20 25 28 29 28 26 19 20 15 12 9 5 2 3 3 3 5 6 8 9 11 12 14 15 15 16 18 18
13 24 27 26 25 27 21 23 25 27 28 27 28 22 27 26 25 25 27 29 27 26 20 19 16 13 10 6 3 1 2 3 4 6 8 9 11 12 14 15 15 16 17 17
7 14 15 13 25 29 30 29 28 22 28 22 23 22 21 22 23 24 27 28 27 25 22 19 16 13 9 5 2 1 1 2 4 7 8 10 11 13 14 14 15 16 17 18
4 11 13 13 15 18 22 26 27 28 28 27 22 27 15 16 19 22 26 28 26 24 21 18 14 11 8 5 2 2 0 2 5 6 8 10 11 12 14 15 16 16 17 19
5 8 12 11 13 13 14 19 18 23 27 22 6 8 1 8 14 19 24 26 25 23 20 17 13 10 8 5 3 2 1 3 5 6 8 9 11 12 13 15 16 17 18 19
12 13 8 10 7 6 2 16 12 17 19 21 17 9 9 14 16 22 26 26 25 23 19 16 12 10 8 6 4 2 1 3 4 6 8 9 10 12 13 14 15 16 18 18
15 15 16 22 25 9 10 14 9 14 17 15 13 5 18 21 24 25 27 26 25 21 17 14 12 10 9 6 4 1 2 3 4 6 8 8 10 11 13 13 15 16 18 19
10 11 19 19 15 16 6 5 3 4 7 17 16 21 26 27 28 27 26 25 21 19 16 13 11 10 8 6 3 2 2 3 4 6 7 8 10 11 12 14 15 17 18 19
12 9 14 13 18 14 4 4 4 9 15 21 26 28 28 29 28 27 24 22 18 17 16 13 11 9 9 6 3 3 1 2 4 5 7 8 9 11 12 12 14 16 18 19
14 18 20 15 9 3 4 5 7 11 19 24 27 28 30 29 27 25 22 20 18 16 14 13 10 10 8 5 4 2 1 3 4 5 7 8 9 10 11 13 13 16 17 20
12 16 17 17 11 12 7 8 10 14 18 22 28 28 29 28 25 22 20 19 17 15 14 12 11 9 6 5 5 2 2 3 5 5 7 8 9 11 11 13 17 17 16 19
10 9 12 15 6 12 11 9 11 18 21 23 26 27 26 24 22 21 20 18 16 15 14 13 10 8 6 5 4 3 1 2 3 4 6 7 9 9 14 16 20 21 20 19
15 6 7 7 12 16 18 20 22 23 24 26 23 24 23 23 21 20 19 18 17 16 14 12 10 8 7 6 4 3 3 1 2 4 5 6 8 10 12 13 14 15 20 21
6 7 2 3 5 12 17 20 21 22 22 22 24 22 23 22 26 25 24 23 20 17 16 14 13 9 7 7 4 2 1 1 2 3 4 6 7 9 11 13 15 16 17 20
12 8 6 8 11 17 20 24 25 24 23 23 22 22 22 24 26 23 19 18 16 14 13 12 11 10 8 6 4 2 1 2 2 3 5 7 7 9 11 13 14 16 18 19
17 14 8 17 22 24 26 26 25 24 23 23 22 20 20 20 20 19 18 17 15 14 13 12 11 9 7 5 3 2 2 3 3 3 5 6 8 9 11 13 14 16 17 19
20 16 20 23 26 27 27 24 22 23 23 21 20 19 19 20 20 19 18 17 15 12 12 11 10 9 7 6 4 3 3 4 5 3 5 7 8 9 11 13 14 16 17 18
15 18 20 24 27 27 24 21 21 21 20 20 21 22 22 20 18 19 18 17 14 13 12 12 10 9 8 7 6 6 3 3 4 5 6 7 9 9 12 14 15 16 18 18
14 16 20 22 23 23 22 21 20 19 22 22 20 20 18 16 15 17 17 16 14 13 13 11 11 8 7 8 6 4 4 4 4 5 7 9 9 11 12 14 15 17 17 18
15 18 20 22 22 21 21 20 24 23 20 18 19 19 18 17 16 16 17 15 11 8 13 12 10 9 9 8 7 5 5 4 5 6 8 10 9 12 12 15 16 16 17 18
20 21 23 23 23 23 24 23 21 19 19 17 18 18 17 16 15 15 16 13 13 15 12 11 10 8 7 8 7 5 5 4 5 7 9 10 12 13 15 16 17 17 18 19
23 24 26 26 26 24 20 20 17 16 16 18 18 16 16 15 15 16 14 11 13 13 13 10 10 12 11 11 6 7 5 6 7 8 10 12 14 15 17 18 18 19 19 19
20 20 22 22 22 21 20 17 15 14 15 15 15 14 14 13 14 15 12 15 11 12 11 9 14 15 13 11 7 7 7 8 8 10 11 13 15 17 18 19 20 20 20 20
19 20 21 21 19 19 18 17 16 15 14 14 13 13 14 12 11 11 9 12 14 14 11 13 17 15 12 9 7 8 9 9 10 11 12 15 16 17 18 19 19 20 20 21
18 19 19 19 18 17 16 16 16 15 14 14 14 14 14 10 9 11 14 13 16 14 11 15 17 13 11 8 8 9 10 10 11 14 14 14 17 18 17 18 18 19 20 20
18 17 17 16 13 14 15 14 13 14 14 13 13 15 14 11 13 13 12 11 12 12 10 14 12 12 9 7 9 10 11 12 13 14 17 15 16 17 16 17 17 17 18 19
16 16 17 15 13 12 12 13 12 12 13 11 9 11 12 13 12 12 11 11 11 10 10 11 10 11 9 9 11 11 13 13 15 19 21 18 17 17 17 18 19 20 21 20
Wind_Direction
254 261 269 272 239 251 241 241 244 260 252 260 263 216 230 236 214 197 193 192 190 189 185 188 191 187 179 183 222 292 323 325 320 333 340 336 332 333 329 329 328 329 330 329
262 276 280 280 270 260 252 262 246 249 254 248 262 283 262 222 214 203 195 194 189 190 186 186 183 178 176 181 216 290 317 321 335 337 344 335 334 335 330 329 330 331 331 329
250 268 281 259 247 260 252 251 250 242 244 251 261 266 239 206 206 205 196 191 189 187 184 182 179 175 170 175 205 131 290 334 339 343 343 338 337 334 330 331 331 333 332 331
228 259 248 258 257 245 250 254 252 253 250 258 269 267 217 225 214 197 189 183 182 178 176 175 169 160 161 157 163 137 338 341 346 341 341 342 337 334 334 333 334 331 331 330
237 259 290 296 262 261 256 267 261 247 251 248 198 102 189 211 199 191 175 172 171 171 170 167 161 155 157 148 154 139 26 347 345 343 346 342 336 335 334 335 333 333 330 332
231 240 243 250 358 35 190 263 261 246 241 232 160 209 214 184 165 158 159 161 162 163 162 160 155 154 150 154 157 137 15 354 348 349 344 341 336 335 334 335 331 333 330 332
235 250 256 255 263 192 217 266 308 223 226 203 178 233 147 150 149 153 154 156 157 157 155 155 150 148 150 153 150 135 33 6 0 353 348 340 337 339 337 336 334 333 332 333
234 242 245 250 268 201 279 306 277 203 182 151 144 138 141 144 146 149 151 154 153 152 151 147 146 146 148 152 150 107 63 26 9 358 352 343 346 342 344 340 336 334 333 332
217 237 244 260 280 217 281 285 226 160 147 148 146 147 148 148 151 152 153 153 153 154 145 140 140 147 153 147 136 120 106 25 11 1 356 350 354 346 348 343 338 336 334 331
241 258 271 257 256 261 235 217 203 166 156 157 153 150 149 151 152 153 155 154 155 150 144 142 142 139 145 147 138 179 309 334 352 351 2 356 2 347 344 336 340 337 333 332
235 249 270 270 250 236 217 159 155 153 154 157 153 153 153 152 153 155 155 155 152 153 150 148 148 140 141 144 145 152 330 11 347 358 358 0 354 338 339 328 327 338 332 334
252 265 248 263 287 223 189 156 159 159 157 160 154 153 153 150 154 157 155 154 152 154 154 155 151 146 153 157 176 160 66 1 324 6 356 352 348 345 334 337 336 336 333 335
253 263 234 276 286 244 223 182 173 164 160 152 152 153 152 151 154 156 154 156 156 158 160 159 155 158 171 183 189 185 193 259 1 2 348 344 343 340 333 333 332 329 326 332
175 149 28 222 218 187 171 159 161 155 152 150 150 151 151 154 166 163 167 172 173 174 178 179 184 193 194 197 193 199 238 310 21 335 332 338 340 336 331 329 330 329 329 331
181 191 157 202 183 171 165 158 154 150 148 148 153 153 158 163 171 177 180 182 184 185 189 192 194 197 199 196 196 223 248 302 338 318 318 343 338 330 327 326 326 326 329 331
177 167 206 197 182 172 165 163 156 153 154 155 155 157 164 169 177 179 182 185 188 191 192 195 199 200 198 201 209 249 299 313 334 305 315 325 324 324 324 324 325 326 328 329
165 161 180 181 177 174 171 165 162 159 157 157 158 160 165 172 179 182 182 182 190 194 199 202 203 202 204 208 177 221 238 273 321 343 306 314 317 318 319 321 322 322 323 324
202 190 184 179 175 171 166 163 160 157 159 161 168 173 177 181 184 186 189 193 196 198 202 207 207 209 213 213 198 213 228 254 277 290 305 308 306 320 317 317 318 319 320 321
179 180 175 174 171 167 162 158 155 156 168 179 180 180 180 184 190 193 195 199 202 206 212 212 218 219 222 224 213 225 238 260 279 290 301 305 318 308 313 314 315 317 317 319
156 159 161 159 160 159 155 155 165 174 177 178 178 180 185 192 195 199 200 202 203 205 229 222 217 210 214 234 223 215 242 266 284 295 300 309 312 309 314 313 312 313 315 316
147 148 148 148 150 159 172 176 174 173 177 181 187 191 195 198 202 201 197 190 205 218 217 220 201 204 212 216 228 222 242 263 285 294 299 301 306 310 307 307 308 310 310 312
149 148 155 163 165 167 170 170 174 177 180 184 190 196 201 205 204 199 195 190 220 230 219 213 208 206 209 224 211 230 243 264 279 288 294 297 301 304 306 304 304 306 305 308
154 158 161 162 163 162 165 171 176 183 189 195 199 205 207 215 208 195 204 202 210 223 202 205 222 232 230 231 219 240 253 266 282 288 292 297 299 302 303 303 301 302 303 304
152 155 159 163 166 169 173 176 183 188 194 200 206 207 206 200 194 196 211 225 213 230 195 223 241 246 242 234 234 245 256 270 278 287 292 296 300 300 301 301 300 298 298 300
157 160 165 167 169 174 183 187 191 196 198 206 210 209 208 195 201 205 211 227 216 223 211 232 242 248 243 235 242 254 262 273 279 277 291 299 296 300 299 299 297 295 296 302
161 162 166 165 172 183 189 191 196 202 201 209 213 212 210 198 209 207 219 209 228 211 204 245 260 245 236 242 251 261 269 273 281 283 284 300 298 300 302 300 301 302 301 300
167 173 174 175 183 187 196 192 200 205 204 203 201 204 202 203 218 193 210 210 212 225 214 222 246 255 231 241 253 265 270 276 283 289 301 305 303 303 302 303 304 305 307 308